THORAD AGENA D DEB, 4249

Orbit data source: Space-Track

THORAD AGENA D DEB, 4249 is space debris in LEO originally from a launch on Tue, 30 Sep 1969 UTC launched from the Air Force Western Test Range (AFWTR). Debris objects in space refer to the collection of defunct objects orbiting the Earth. Examples of debris include non-operational satellites, rocket bodies, and fragments generated from explosions, collisions, or faulty payload assembly.

Loading next visibility...
Identifier
4249, 1969-082CY
Orbit
LEO
Country
Flag of USUS
Related business
Manufacturer
Unknown
Mission
Spacecraft
Bus & Motor
Unknown
Mass
Unknown
Launch date (UTC)
1969-09-30 (57 years ago)
Launch vehicle
Unknown
Launch site
Air Force Western Test Range (AFWTR)
Object type
Payload
Rocket body
Debris
Shape & HBR
Unknown shape, 0.1 m
Radar Cross Section
Small (<0.1 m²)

Expand to show TLE details & history
Last TLE update: 17 hours ago

TLE from 17 hours ago
0 THORAD AGENA D DEB
1  4249U 69082CY  26093.60812410  .00000938  00000-0  43170-3 0  9994
2  4249  70.0617 168.6131 0057602 344.0939  15.8370 14.23253210911378
Epoch: 2026-04-03T14:35Z
TLE epoch observation values (Epoch: 2026-04-03T14:35:41.922Z)
Latitude
Longitude
117.74861°
Altitude
776.873 km
Speed
7.486 km/s
True Right ascension
11h 14m 27s
True Declination
0° 00' 00"
Sunlit
Object was in full shadow at epoch
Visualization orbit readout
Latitude
Unknown
Longitude
Unknown
Altitude
Unknown
Speed
Unknown
Apparent Right ascension
Unknown
Apparent Declination
Unknown
Sunlit
N/A
Visualization observer readout
Local Sidereal Time
13:30:05
Azimuth
Unknown
Elevation
Unknown
Doppler factor
Unknown
Orbital elements
Apogee altitude
853.802 km
Perigee altitude
770.964 km
Semi-major axis
7,190.52 km
Eccentricity
0.00576
Inclination
70.0617°
RAAN
168.6131°
Arg. of periapsis
344.0939°
True anomaly
16.01839°
Mean anomaly
15.837°
Eccentric anomaly
15.92757°
Mean motion
3.55961 °/min
Orbital period
101.13 mins
BSTAR
0.0004317
Loading maneuver chart data...
Computing Atmospheric mass density...

Documentation

Showing up to 5 results
|